[[{"header":{"parameterUnit":"m.s-1","parameterCategory":1,"la1":30.2991,"la2":30.254,"lo1":-89.0895,"lo2":-89.0444,"dy":0.0017,"dx":0.0017,"nx":28,"ny":28,"refTime":"2024-09-27T09:00:00:Z","depth":0,"parameterNumber":2,"parameterNumberName":"U-component_of_WINDS"},"data":[0,0,0,0,0,0,0,0,0,0,0,0,0,0,0,0,0,0,0,0,0,0,0,0,0,0,0,0,0,0,0,0,0,0,0,0,0,0,0,0,0,0,0,0,0,0,0,0,0,0,0,0,0,0,0,0,0,0,6.4675,6.4678,0,6.4945,6.4948,6.4951,6.4904,6.49,6.4895,6.489,6.517,6.5181,6.5193,0,0,0,0,0,0,0,0,0,0,0,0,0,6.4121,6.4131,6.4675,6.4679,6.4682,6.4944,6.4948,6.4952,6.4905,6.4899,6.4894,6.4888,6.5166,6.518,6.5194,0,0,0,0,0,0,0,0,0,0,0,0,0,6.4373,6.4135,6.4675,6.469,6.4694,6.4944,6.4948,6.4953,6.4906,6.4899,6.4892,6.4885,6.5161,6.5178,6.5196,6.5448,0,0,6.525,6.5258,0,0,0,0,0,0,0,0,6.4359,6.4394,6.4685,6.469,6.4695,6.4884,6.4855,6.5119,6.4908,6.4826,6.489,6.4882,6.5081,6.5104,6.5171,6.5461,6.5473,6.5252,6.5263,6.527,6.5275,0,0,0,0,0,0,0,6.4342,6.4382,6.4782,6.4689,6.4695,6.4684,6.4712,6.4905,6.499,6.4833,6.483,6.4862,6.5082,6.5154,6.5177,6.5477,6.5251,6.5267,6.5278,6.5285,6.5983,6.599,0,0,0,0,0,0,6.4319,6.4368,6.4773,6.479,6.4506,6.47,6.4731,6.483,6.4988,6.5005,6.4868,6.4859,6.5127,6.5156,6.5187,6.5488,6.527,6.5287,6.5297,6.5975,6.5985,6.5993,0,0,0,0,0,0,6.4307,6.4356,6.4762,6.4578,6.4629,6.4717,6.4829,6.4839,6.4911,6.5014,6.5029,6.4926,6.5122,6.5162,6.5382,6.5497,6.5295,6.5311,6.5966,6.5978,6.5989,6.6096,0,0,0,0,0,0,6.4292,6.4352,6.4448,6.4581,6.4639,6.4953,6.4836,6.485,6.4941,6.4932,6.5072,6.5089,6.512,6.5356,6.54,6.5518,6.5325,6.5956,6.5971,6.5985,6.6082,6.611,6.6133,0,0,0,0,0,6.4272,6.4469,6.4453,6.4503,6.4761,6.496,6.4994,6.5024,6.4951,6.5048,6.5114,6.5084,6.5478,6.5379,6.5428,6.5553,6.5949,6.5967,6.5984,6.6071,6.6104,6.6133,0,0,0,0,0,0,6.435,6.4487,6.4471,6.4717,6.4827,6.4952,6.5076,6.506,6.5194,6.518,6.5213,6.5245,6.5468,6.5533,6.542,6.5803,6.5703,6.5731,6.5752,6.5785,6.581,6.5789,6.534,0,0,0,0,0,6.4396,6.4545,6.4657,6.4863,6.4919,6.4988,6.5076,6.509,6.5206,6.5252,6.5335,6.5449,6.5597,6.5695,6.5839,6.6092,6.612,6.6203,6.6228,6.6248,6.6272,6.6407,6.6444,6.6051,6.6051,6.6051,0,0,6.4492,6.4585,6.4678,6.4881,6.4968,6.5121,6.5028,6.5195,6.5309,6.5278,6.549,6.5554,6.5684,6.5921,6.6029,6.5982,6.6387,6.6271,6.6286,6.6299,6.6429,6.6466,6.6499,6.6063,6.6061,6.6059,0,0,6.4745,6.4832,6.5011,6.51,6.5231,6.5276,6.5318,6.5446,6.5487,6.5699,6.5678,6.5815,6.6072,6.6163,6.6244,6.6529,6.6505,6.6575,6.6707,6.6839,6.6869,6.6897,6.6995,6.703,6.6598,6.6599,6.6599,0,6.4848,6.5078,6.5106,6.5274,6.5363,6.5341,6.5521,6.5606,6.5779,6.5841,6.5785,6.6104,6.6191,6.6446,6.6515,6.6583,6.6631,6.6558,6.6863,6.689,6.6917,6.7011,6.7048,6.6606,6.6605,6.6604,6.6604,0,6.5197,6.5356,6.5485,6.565,6.5754,6.5928,6.5981,6.6083,6.6088,6.6137,6.6353,6.6455,6.6616,6.6679,6.6686,6.6936,6.6901,6.6854,6.6754,6.6961,6.7049,6.7086,6.6616,6.6614,6.6612,6.661,0,0,6.5507,6.5682,6.5729,6.5801,6.5944,6.6068,6.6241,6.6397,6.6482,6.6602,6.6745,6.6962,6.6918,6.7009,6.7027,6.7142,6.7357,6.7081,6.7084,6.7125,6.7634,6.7666,6.7708,6.7343,6.735,6.7355,6.7622,0,6.5771,6.6073,6.6102,6.6373,6.6519,6.6499,6.6648,6.6752,6.6803,6.6934,6.6991,6.7142,6.7074,6.7128,6.7242,6.7306,6.7459,6.7288,6.7475,6.7482,6.744,6.7755,6.779,6.8037,6.7657,6.7663,6.7667,0,6.6119,6.6246,6.6531,6.6649,6.6712,6.6846,6.6989,6.7116,6.7232,6.726,6.7361,6.7362,6.7538,6.7432,6.7674,6.7557,6.7636,6.7679,6.7689,6.7706,6.7585,6.7777,6.8117,6.8152,6.7723,6.7719,6.7715,0,6.6312,6.6555,6.6755,6.6819,6.6963,6.7057,6.7122,6.7231,6.7322,6.7448,6.7507,6.7653,6.7732,6.7845,6.7885,6.7804,6.8124,6.8022,6.8151,6.815,6.8218,6.8213,6.8572,6.8274,6.8273,6.8272,6.8272,0,6.6602,6.6777,6.6843,6.6967,6.716,6.7192,6.7383,6.7443,6.754,6.7674,6.7667,6.7793,6.7839,6.7972,6.8005,6.8199,6.8236,6.8263,6.8269,6.8262,6.8258,6.8312,6.8295,6.8282,6.828,6.8278,6.8277,0,6.685,6.6903,6.7119,6.7237,6.7271,6.7408,6.7509,6.7628,6.7675,6.7845,6.7887,6.7962,6.8119,6.817,6.836,6.8382,6.8607,6.86,6.8566,6.8567,6.8691,6.8678,6.9096,6.9151,6.8819,6.8822,6.8825,0,6.7031,6.7164,6.7295,6.7383,6.7451,6.7594,6.7685,6.7721,6.7817,6.7958,6.8059,6.8213,6.8338,6.8589,6.8661,6.8806,6.88,6.8937,6.8822,6.8809,6.8798,6.8788,6.88,6.8957,6.8961,6.8964,6.8966,0,6.7344,6.7362,6.7494,6.7634,6.7743,6.7856,6.7965,6.8038,6.809,6.8198,6.8356,6.8453,6.8645,6.8798,6.8945,6.9011,6.8997,6.9001,6.9038,6.9031,6.9005,6.9017,6.8622,6.8991,6.8989,6.8987,6.8986,6.8985,6.7562,6.7677,6.7786,6.7933,6.8018,6.8119,6.8234,6.8296,6.8428,6.8586,6.8599,6.877,6.888,6.9075,6.9149,6.9282,6.9244,6.9298,6.9311,6.9323,6.9331,6.8986,6.931,6.9309,6.9309,6.9308,6.9308,0,6.7871,6.7939,6.8074,6.8225,6.8339,6.8315,6.8433,6.8531,6.868,6.8784,6.8906,6.9087,6.9234,6.9317,6.9464,6.9554,6.9551,6.9591,6.9584,6.9599,6.9359,6.9311,6.9591,6.9591,6.9591,6.9591,6.9591,6.9591,6.8045,6.8238,6.8269,6.8504,6.8571,6.8737,6.8806,6.8898,6.8981,6.9182,6.9303,6.9356,6.9451,6.9604,6.9737,6.9758,6.9811,6.9855,6.9871,6.9645,6.9616,6.9588,6.9543,6.9867,6.9867,7.0098,7.0101,7.0102]},{"header":{"parameterUnit":"m.s-1","parameterCategory":1,"la1":30.2991,"la2":30.254,"lo1":-89.0895,"lo2":-89.0444,"dy":0.0017,"dx":0.0017,"nx":28,"ny":28,"refTime":"2024-09-27T09:00:00:Z","depth":0,"parameterNumber":3,"parameterNumberName":"V-component_of_WINDS"},"data":[0,0,0,0,0,0,0,0,0,0,0,0,0,0,0,0,0,0,0,0,0,0,0,0,0,0,0,0,0,0,0,0,0,0,0,0,0,0,0,0,0,0,0,0,0,0,0,0,0,0,0,0,0,0,0,0,0,0,2.8593,2.8593,0,2.863,2.863,2.8631,2.8592,2.859,2.8589,2.8587,2.8624,2.8627,2.8629,0,0,0,0,0,0,0,0,0,0,0,0,0,2.8486,2.8488,2.8593,2.8593,2.8594,2.863,2.863,2.8631,2.8592,2.859,2.8588,2.8586,2.8624,2.8627,2.8629,0,0,0,0,0,0,0,0,0,0,0,0,0,2.8528,2.8489,2.8593,2.8579,2.8578,2.863,2.863,2.8631,2.8592,2.859,2.8588,2.8586,2.8623,2.8626,2.863,2.8698,0,0,2.8641,2.8642,0,0,0,0,0,0,0,0,2.8526,2.8532,2.858,2.858,2.8579,2.8604,2.8606,2.8653,2.8593,2.8587,2.8587,2.8584,2.8619,2.8623,2.8635,2.8699,2.8701,2.8641,2.8643,2.8645,2.8646,0,0,0,0,0,0,0,2.8523,2.8531,2.8607,2.8581,2.858,2.857,2.8573,2.8615,2.8615,2.8587,2.8584,2.8589,2.8619,2.8632,2.8636,2.8701,2.8641,2.8644,2.8646,2.8648,2.8821,2.8823,0,0,0,0,0,0,2.8522,2.8528,2.8606,2.8609,2.8546,2.8573,2.8577,2.8598,2.8615,2.8615,2.8591,2.8587,2.8627,2.8631,2.8637,2.8716,2.8645,2.8648,2.865,2.8818,2.8821,2.8824,0,0,0,0,0,0,2.852,2.8529,2.8605,2.8568,2.8577,2.8578,2.8601,2.86,2.8613,2.8618,2.8618,2.8605,2.8625,2.8632,2.8682,2.8717,2.865,2.8653,2.8815,2.8819,2.8823,2.8876,0,0,0,0,0,0,2.8517,2.8529,2.8555,2.8569,2.8579,2.8651,2.8603,2.8602,2.8619,2.8615,2.863,2.8631,2.8624,2.8677,2.8686,2.872,2.8656,2.8812,2.8817,2.8821,2.8871,2.8881,2.8889,0,0,0,0,0,2.8513,2.8569,2.8557,2.8566,2.8612,2.8653,2.8658,2.8649,2.8622,2.8648,2.8651,2.863,2.8711,2.8683,2.8692,2.8728,2.881,2.8816,2.8821,2.8867,2.8879,2.8889,0,0,0,0,0,0,2.856,2.8571,2.8557,2.8619,2.8635,2.8646,2.8679,2.8662,2.8686,2.8681,2.8668,2.8672,2.8726,2.8732,2.87,2.8794,2.8756,2.8764,2.8788,2.8799,2.8808,2.8805,2.8659,0,0,0,0,0,2.8577,2.861,2.8617,2.8671,2.868,2.8678,2.8695,2.8687,2.8703,2.871,2.8716,2.8732,2.8761,2.878,2.8807,2.8871,2.8873,2.8901,2.891,2.8917,2.8924,2.8956,2.8968,2.8842,2.8842,2.8842,0,0,2.8614,2.8624,2.8645,2.8681,2.8692,2.8725,2.8684,2.8721,2.8746,2.8715,2.8763,2.8768,2.8785,2.8842,2.8868,2.8849,2.8959,2.8924,2.893,2.8933,2.8963,2.8975,2.8986,2.8846,2.8845,2.8844,0,0,2.8697,2.8708,2.8754,2.8766,2.8783,2.8781,2.8792,2.8805,2.8807,2.8855,2.8832,2.886,2.8911,2.8924,2.8937,2.9022,2.9004,2.9031,2.9079,2.9111,2.9121,2.913,2.9159,2.917,2.9038,2.9038,2.9038,0,2.874,2.879,2.8779,2.8817,2.8833,2.8806,2.8851,2.8864,2.8889,2.89,2.8879,2.8941,2.895,2.9009,2.903,2.9042,2.9053,2.903,2.912,2.9129,2.9137,2.9165,2.9176,2.9041,2.9041,2.9041,2.904,0,2.8841,2.8876,2.891,2.8935,2.8955,2.8996,2.8991,2.9011,2.9001,2.9001,2.9049,2.9059,2.9087,2.91,2.909,2.9157,2.9145,2.9123,2.9085,2.9153,2.9179,2.9189,2.9046,2.9045,2.9044,2.9043,0,0,2.8956,2.8973,2.8986,2.8996,2.9013,2.9039,2.9079,2.9106,2.9123,2.9141,2.9174,2.9216,2.9195,2.9209,2.92,2.9229,2.9294,2.9202,2.9202,2.9218,2.9367,2.9383,2.9396,2.9282,2.9284,2.9285,2.9365,0,2.9039,2.9108,2.9098,2.9165,2.9196,2.917,2.9204,2.9218,2.9218,2.9244,2.9244,2.9274,2.9244,2.9253,2.9279,2.9281,2.9324,2.9275,2.9311,2.9312,2.9307,2.941,2.9428,2.9503,2.9375,2.9377,2.9378,0,2.9146,2.9167,2.9236,2.9246,2.9259,2.929,2.9313,2.9338,2.9352,2.935,2.9366,2.9351,2.939,2.9351,2.9403,2.937,2.9384,2.9387,2.9389,2.9392,2.9349,2.9415,2.9527,2.9538,2.9395,2.9393,2.9392,0,2.9221,2.9267,2.9314,2.9324,2.9337,2.9359,2.9366,2.9377,2.9394,2.9413,2.9424,2.9448,2.9461,2.948,2.9471,2.9444,2.9525,2.9486,2.9523,2.9524,2.9542,2.954,2.9657,2.9552,2.9551,2.9551,2.9551,0,2.9314,2.9358,2.9348,2.9377,2.9423,2.9411,2.9458,2.9461,2.9471,2.95,2.9479,2.9506,2.9493,2.9519,2.9513,2.9556,2.9563,2.9561,2.9559,2.9563,2.9563,2.9572,2.9566,2.9554,2.9553,2.9553,2.9552,0,2.9407,2.9402,2.9451,2.946,2.9462,2.9497,2.9503,2.9529,2.9528,2.9564,2.9571,2.9569,2.9597,2.9591,2.9623,2.9619,2.9673,2.9664,2.9668,2.9666,2.9704,2.97,2.9829,2.9845,2.973,2.9731,2.9732,0,2.9467,2.9499,2.951,2.9527,2.9535,2.9564,2.958,2.9569,2.9586,2.9603,2.9628,2.9654,2.9676,2.9723,2.9723,2.9747,2.9738,2.9782,2.9742,2.9744,2.9738,2.9736,2.9738,2.979,2.9791,2.9792,2.9793,0,2.9573,2.9568,2.9593,2.9616,2.9635,2.9653,2.9669,2.9684,2.9673,2.9694,2.9723,2.9739,2.9771,2.9798,2.982,2.9825,2.9807,2.9806,2.9815,2.982,2.982,2.9819,2.9689,2.9803,2.9802,2.9801,2.9801,2.98,2.965,2.9677,2.9688,2.9716,2.9726,2.974,2.9765,2.9766,2.979,2.9815,2.9807,2.984,2.9851,2.9878,2.9887,2.9912,2.9895,2.991,2.9913,2.9917,2.9921,2.9816,2.9916,2.9915,2.9915,2.9915,2.9915,0,2.9754,2.976,2.9785,2.9807,2.9828,2.9809,2.9825,2.9843,2.9872,2.9885,2.9905,2.9938,2.9963,2.9965,2.9989,3.0008,3.0,3.0015,3.0013,3.0014,2.9935,2.9924,3.002,3.002,3.002,3.002,3.002,3.002,2.981,2.9854,2.9851,2.9899,2.9905,2.9937,2.9947,2.996,2.9969,3.0007,3.0028,3.0029,3.0036,3.006,3.0082,3.0081,3.0091,3.0108,3.0105,3.003,3.002,3.001,2.9999,3.011,3.011,3.0182,3.0182,3.0183]}]]